Location: Brookview Estates
(36.0476°N, 86.6931°W)
Time: 17:42:34
(UTC+00:00)

ISS - Visible Passes

Search period start: 14 May 2021 00:00
Search period end: 24 May 2021 00:00
Orbit: 417 x 422 km, 51.6° (Epoch: 14 May)

Date Brightness Start Highest point End Pass type
(mag) Time Alt. Az. Time Alt. Az. Time Alt. Az.
14 May -3.2 02:10:53 10° SSW 02:13:26 36° SSE 02:13:26 36° SSE visible
14 May -0.9 08:42:33 10° NNW 08:45:07 20° NNE 08:47:42 10° E visible
15 May -2.5 01:24:05 10° S 01:26:43 22° SE 01:29:24 10° ENE visible
15 May -1.9 03:00:20 10° W 03:03:24 32° NW 03:06:28 10° NNE visible
15 May -0.4 07:55:35 10° N 07:57:29 14° NNE 07:59:23 10° ENE visible
15 May -3.8 09:31:19 10° NW 09:34:42 87° SW 09:38:04 10° SE visible
16 May -3.0 02:12:36 10° WSW 02:15:53 55° NW 02:19:12 10° NE visible
16 May -0.2 03:52:24 10° NW 03:53:18 11° NNW 03:54:13 10° N visible
16 May -0.1 07:09:06 10° N 07:09:47 10° NNE 07:10:27 10° NNE visible
16 May -2.9 08:43:56 10° NW 08:47:14 50° NE 08:50:31 10° ESE visible
17 May -3.8 01:25:05 10° SW 01:28:26 80° SE 01:31:48 10° NE visible
17 May -0.5 03:03:37 10° WNW 03:05:36 15° NNW 03:07:36 10° N visible
17 May -1.8 08:00:11 29° NE 08:00:11 29° NE 08:02:44 10° E visible
17 May -2.7 09:33:43 10° WNW 09:36:25 24° SW 09:39:11 10° S visible
18 May -1.0 02:15:20 10° W 02:17:58 21° NNW 02:20:35 10° NNE visible
19 May -1.7 01:27:19 10° W 01:30:22 32° NW 01:33:26 10° NNE visible
20 May -0.3 02:19:24 10° NW 02:20:16 11° NNW 02:21:08 10° N visible
21 May -0.6 01:30:35 10° WNW 01:32:33 15° NNW 01:34:31 10° N visible
23 May -0.2 04:49:27 10° N 04:49:41 11° N 04:49:41 11° N visible
